Regional Weather Roundup
Issued by NWS Wakefield, VA

Home | Current Version | Previous Version | Text Only | Print | Product List | Glossary On
Versions: 1 2 3 4 5 6 7 8 9 10 11 12 13 14 15 16 17 18 19 20 21 22 23 24 25 26 27 28 29 30 31 32 33 34 35 36 37 38 39 40 41 42 43 44 45 46 47 48 49 50
000
ASUS41 KAKQ 011210
RWRAKQ

REGIONAL WEATHER ROUNDUP
NATIONAL WEATHER SERVICE WAKEFIELD VA
800 AM EDT FRI AUG 01 2014

Note: "fair" indicates few or no clouds below 12,000 feet with no
significant weather and/or obstructions to visibility. * = Denotes
station may not report precipitation (e.g., rain,snow,etc.),
thunder or fog.

VAZ042-051-052>054-056-011300-
NORTHERN VIRGINIA

CITY           SKY/WX    TMP DP  RH WIND       PRES   REMARKS
WASH NATIONAL  CLOUDY    76  67  73 S10       30.18R
DULLES         CLOUDY    71  66  84 S6        30.17R
FORT BELVOIR   CLOUDY    73  68  85 S5        30.18R
QUANTICO       CLOUDY    74  68  81 SW12      30.19R
FREDERICKSBRG* CLOUDY    72  71  96 CALM      30.17S
STAFFORD*      CLOUDY    70  70 100 CALM      30.22R FOG
WARRENTON      CLOUDY    73  71  95 S3        30.18R
CULPEPER*      CLOUDY   N/A N/A N/A CALM      30.18R
MANASSAS*      NOT AVBL
LEESBURG*      CLOUDY    70  70 100 CALM      30.18S
WINCHESTER     CLOUDY    66  63  88 CALM      30.17S
$$

VAZ048-049-060>072-079>083-011300-
CENTRAL AND SOUTH CENTRAL VIRGINIA...AND NORTH CENTRAL NORTH CAROLINA

CITY           SKY/WX    TMP DP  RH WIND       PRES   REMARKS
RICHMOND       CLOUDY    73  67  81 CALM      30.18S
CHESTERFIELD*  CLOUDY   N/A N/A N/A CALM      30.19R
HANOVER        CLOUDY    70  67  90 CALM      30.20R FOG
TAPPAHANNOCK*  LGT RAIN  70  67  88 CALM      30.18F
CHARLOTTSVILLE LGT RAIN  68  66  93 CALM      30.19R FOG
ORANGE*        DRIZZLE   68  66  94 S3        30.20R
LOUISA*        DRIZZLE   70  66  88 CALM      30.18R
FARMVILLE*     LGT RAIN  68  66  94 CALM      30.17R
SOUTH HILL*    CLOUDY    72  72 100 N5        30.21F FOG
ROANOKE RAPIDS CLOUDY    68  68 100 CALM      30.14S FOG
RALEIGH        CLOUDY    70  67  90 NE8       30.13S
$$

VAZ088>098-011300-
SOUTHEAST VIRGINIA

CITY           SKY/WX    TMP DP  RH WIND       PRES   REMARKS
NORFOLK        CLOUDY    75  69  81 CALM      30.16R
VIRGINIA BEACH CLOUDY    74  70  87 CALM      30.14S
NORFOLK NAVAL  CLOUDY    75  68  78 E5        30.16S
WEST POINT*    CLOUDY    72  69  90 CALM      30.18S
NEWPORT NEWS   LGT RAIN  74  68  81 CALM      30.16S
LANGLEY AFB    CLOUDY    72  72 100 CALM      30.16R
FORT EUSTIS    CLOUDY    72  72 100 NE1       30.15R
WILLIAMSBURG*  CLOUDY    73  72  94 CALM      30.17S
FRANKLIN*      CLOUDY    70 N/A N/A CALM      30.14F
WAKEFIELD      CLOUDY    70  67  90 CALM      30.15F FOG
$$

VAZ020-022-025-037-045-011300-
WESTERN AND SOUTHWEST VIRGINIA

CITY           SKY/WX    TMP DP  RH WIND       PRES   REMARKS
STAUNTON*      LGT RAIN  67  63  86 S3        30.22R
HOT SPRINGS VA LGT RAIN  57  56  94 SE6       30.28S VSB<1/4
LYNCHBURG      LGT RAIN  66  64  94 CALM      30.21S FOG
DANVILLE       LGT RAIN  66  62  87 N3        30.18R
MARTINSVILLE   RAIN      65  64  97 CALM      30.21R
ROANOKE        LGT RAIN  66  63  90 CALM      30.21S
BLACKSBURG     RAIN      63  63 100 SE3         N/A
DUBLIN*        RAIN      64  64 100 E5        30.23R
MARION*        DRIZZLE   61  58  90 E6        30.23R
HILLSVILLE*    LGT RAIN  58  57  97 CALM      30.22S
RICHLANDS*     PTSUNNY   67  62  83 E3        30.19R
WISE*          PTSUNNY   63  61  94 CALM      30.20R
ABINGDON*      CLOUDY    67  62  84 E7        30.17R
$$

MDZ021>025-VAZ099-100-011300-
SOUTHERN MARYLAND AND THE DELMARVA PENINSULA

CITY           SKY/WX    TMP DP  RH WIND       PRES   REMARKS
PATUXENT RIVER CLOUDY    73  66  78 SW5       30.17R
BAY BRIDGE APT   N/A     75  64  69 SW8       30.18R
LEONARDTOWN    CLOUDY    72  64  78 SW3       30.19S
DOVER          CLOUDY    72  69  89 SW6       30.16S
GEORGETOWN     CLOUDY    71  66  84 S8        30.19R
EASTON         CLOUDY    75  75 100 CALM      30.22R
CAMBRIDGE      CLOUDY    73  68  83 CALM      30.17S
SALISBURY      CLOUDY    73  67  81 CALM      30.18R
OCEAN CITY     CLOUDY    72  70  93 CALM      30.18R FOG
WALLOPS ISLAND CLOUDY    75  70  84 CALM      30.18R
ACCOMACK*        N/A     70  68  94 CALM      30.17S
$$

NCZ012>017-030>032-011300-
EASTERN NORTH CAROLINA

CITY           SKY/WX    TMP DP  RH WIND       PRES   REMARKS
ELIZABETH CITY CLOUDY    75  69  81 NE10      30.12F
AHOSKIE*       CLOUDY    70  66  89 CALM      30.14R
EDENTON*       CLOUDY    72  70  94 CALM      30.12R
CURRITUCK*     CLOUDY    76  67  73 NE6       30.14F
KILL DEVIL HLS CLOUDY    76  69  79 E5        30.12R
MANTEO         NOT AVBL
CAPE HATTERAS  CLOUDY    80  74  81 E6        30.09F
GOLDSBORO      CLOUDY    72  72 100 E5        30.10R
WASHINGTON     CLOUDY    69  68  94 NE3       30.12R
GREENVILLE     CLOUDY    72  68  88 NE5       30.13R
NEW BERN       RAIN      75  70  83 NE8       30.10R
WILMINGTON     CLOUDY    74  72  93 NE3       30.06R
$$

VAZ048-011300-
ELSEWHERE

CITY           SKY/WX    TMP DP  RH WIND       PRES   REMARKS
HARRISBURG PA  CLOUDY    69  64  84 CALM      30.17R HAZE
BALTIMORE      CLOUDY    73  67  81 SW5       30.17R
ANNAPOLIS      CLOUDY    75  66  73 S9        30.18R
ANDREWS AFB    CLOUDY    73  67  83 S8        30.18R
WILMINGTON DE  CLOUDY    73  68  84 S3        30.19R
PHILADELPHIA   PTSUNNY   73  67  81 SW6       30.18R
WILDWOOD NJ*   PTSUNNY   72  64  78 CALM      30.20R
ATLANTIC CITY  PTSUNNY   73  67  81 SW6       30.19R
HENDERSON NC   CLOUDY    69  67  94 N3        30.17R FOG
GREENSBORO     RAIN      64  63  96 NE10      30.15R FOG
ROCKY MOUNT    CLOUDY    72  67  84 NE5       30.13R
FAYETTEVILLE   CLOUDY    72  69  90 NE6       30.08R
CHARLOTTE      LGT RAIN  67  64  90 VRB7      30.10R
$$

VAZ100-011300-
MARINE

STATION/POSITION TIME  TEMP    WIND        PRES    WAVE   SWELL
                       AIR SEA DIR/SP/G            HT/PER HT/PER
                 (UTC) (F)     (DEG/KT/KT) (MB)    (FT/S) (FT/S)
44066 TX TWR #4  1200   73 74  160/  4/  4 1022.8R   3/ 7   3/ 7
CAPE MAY NJ      1200   72 76   CALM  /  1 1021.6R
LEWES DE         1200   72 70  250/  2/  3 1021.7R
15NM E FENWICK I 1200   74 72              1022.2R   2/ 7
OCEAN-CITY-INLET 1200   73 74  160/  2/  3 1021.4R
WACHAPREAGUE VA  1200   74 78   CALM  /  1 1021.5S
THOMAS POINT MD  1200   74 77  210/ 12/ 13 1022.4R
GOOSES REEF MD   1200   75     230/ 10/ 12 1022.2R
COVE POINT MD    1200   74     250/  5/  6 1021.6R
SOLOMONS ISLAND  1200      79                N/A
BISHOPS HEAD MD  1200   76 77  230/  5/  7 1021.5R
PINEY POINT MD   1200          280/  4/  5   N/A
POTOMAC MD       1200   75     250/  6/  8 1021.1S
CAMBRIDGE MD     1200   75 78  210/  2/  2 1021.6R
LEWISETTA VA     1200   73 78  230/  3/  4 1021.5S
RAPPAHANNOCK LGT 1200          110/  4/  5 1022.0F
STINGRAY PT      1200   76     300/  2/  4 1022.1S
YORK RVR RNG VA  1200   77     140/  5/  6 1020.7S
YORKTOWN VA      1200   74 79  240/  1/  2 1021.1R
JAMESTOWN VA     1200   71      30/  2/  2   N/A
DOMINION TERM VA 1200   76      CALM  /  3 1021.3R
KIPTOPEKE VA     1200      80   80/  4/  5   N/A
CHES BAY BRIDGE  1200   76 77   80/  6/  8 1020.6R
CAPE HENRY VA    1200   76      80/  7/  8 1019.9R
WILLOUBY STN VA  1200          110/  5/  5 1020.5S
S CRANEY ISL VA  1200           60/  5/  5 1021.1S
CAPE HENRY BUOY  1200      76                N/A     2/ 7
1ST LANDING BUOY 1200   77      90/  6/  8 1020.8S
CAPE CHARLES BUO 1200      75                N/A     2/ 7
OFFSHORE WE BUOY 1200      78                N/A     3/ 7
64NM E OF VA BCH 1200   77 78   80/ 10/ 12 1020.6R   2/ 7   2/ 7
DUCK PIER NC     1200   77 76   80/  9/ 10 1019.7R
44056 DUCK FRF   1200                        N/A     3/ 7
OREGON INLET NC  1200   77 79   60/ 11/ 14 1019.7S
HATTERAS NC      1200   79 80   70/  5/ 10 1019.4R
DIAMOND SHLS NC  1200          VRB 16/ 19  1018.5R   4/ 7   2/ 8
CAPE LOOKOUT NC  1100   80      90/ 16/ 18 1017.9R
$$


USA.gov is the U.S. government's official web portal to all federal, state and local government web resources and services.